Location: George Washington National Forest Helicopter Landing Site
(38.6463°N, 79.0851°W)
Time: 23:03:51
(UTC-04:00)

Tiros 1 despin weight - Pass Details

Date: 23 August 2019
Orbit: 595 x 642 km, 48.2° (Epoch: 15 September)

Event Time Altitude Azimuth Distance (km) Brightness Sun altitude
Rises 03:05:09 0° 289° (WNW) 2,850 - -34.1°
Reaches altitude 10° 03:07:48 10° 304° (WNW) 1,955 - -33.8°
Maximum altitude 03:11:27 24° 358° (N) 1,279 - -33.4°
Exits shadow 03:12:11 23° 13° (NNE) 1,315 ? -33.3°
Drops below altitude 10° 03:15:10 10° 53° (NE) 1,980 ? -33.0°
Sets 03:17:52 0° 67° (ENE) 2,896 ? -32.7°
